Location: *
(40.4270°N, 9.4940°E)
Time: 01:45:59
(UTC+01:00)

Daily predictions for brighter satellites

Satellite Brightness Start Highest point End
(mag) Time Altitude Azimuth Time Altitude Azimuth Time Altitude Azimuth
SL-16 R/B 4.2 04:05:07 22° NE 04:05:07 22° NE 04:07:17 10° NE
USA 215 3.6 04:41:33 10° NE 04:48:01 62° SE 04:50:39 37° SSW
Cosmos 921 Rocket 4.1 04:53:38 45° ENE 04:53:38 45° ENE 04:57:46 10° SE
Cosmos 2369 Rocket 4.3 04:55:58 10° N 05:00:20 22° NE 05:04:40 10° ESE
Feng Yun 1-1 Rocket 4.1 04:55:44 10° NNE 05:01:22 84° ESE 05:06:50 10° SSW
Meteor 1-18 Rocket 4.3 05:00:49 37° N 05:03:17 81° E 05:09:14 10° SSE
CENTAUR R/B 3.1 05:05:01 41° NNW 05:05:01 41° NNW 05:10:24 10° NNE
H-2A ROCKET BODY 4.5 05:00:17 22° SSW 05:03:54 29° S 05:24:54 10° SE
COSMO-SKYMED 1 4.1 05:00:01 10° SE 05:03:58 35° ENE 05:06:24 19° NNE
Cosmos 2074 Rocket 4.1 04:58:23 10° S 05:04:37 72° E 05:10:52 10° NNE
USA 32 4.2 05:03:41 25° N 05:06:44 69° E 05:11:56 10° SSE
Gbstr 26 Del rocket 4.3 05:11:13 30° S 05:11:13 30° S 05:13:38 10° SSE
SL-08 ROCKET BODY 4.4 05:04:04 10° S 05:10:03 80° E 05:15:57 10° N
Meteor 1-20 Rocket 4.1 05:10:50 10° S 05:16:25 88° E 05:21:57 10° N
Cosmos 2184 Rocket 3.9 05:14:07 10° S 05:20:16 89° W 05:26:30 10° N
GPS 2-05 Rocket1 4.4 05:21:40 31° SSE 05:21:40 31° SSE 05:24:12 10° ESE
Cosmos 2297 4.4 05:24:47 35° SW 05:24:47 35° SW 05:28:43 10° S
Celestis-02/Orion 38 4.5 05:20:26 10° SSE 05:25:35 83° WSW 05:27:29 41° NNW
Cosmos 1300 Rocket 4.2 05:21:23 10° S 05:25:42 55° E 05:30:02 10° NNE
Cosmos 1680 Rocket 4.4 05:30:47 31° NNW 05:30:47 31° NNW 05:33:54 10° N
Cosmos 1238 Rocket 3.5 05:29:24 51° NW 05:30:23 61° W 05:36:06 10° S
Tiangong 2 2.4 05:31:35 36° NE 05:31:35 36° NE 05:33:42 10° ENE
Cosmos 2154 Rocket 4.4 05:29:47 10° S 05:35:53 63° E 05:42:00 10° NNE
SL-16 R/B 3.1 05:47:05 27° NW 05:47:05 27° NW 05:51:05 10° N
Abrixas rocket 2.9 05:46:06 34° SSW 05:47:13 54° SE 05:50:31 10° ENE
Cosmos 1943 Rocket 4.2 05:43:13 10° N 05:47:35 23° NE 05:51:55 10° ESE
SKYMED 2 3.5 05:47:38 10° S 05:51:56 68° WSW 05:55:02 19° NNW
Lacrosse 5 1.9 05:47:16 10° SW 05:52:22 81° SE 05:57:30 10° NE
NOAA 6 4.0 05:47:59 10° N 05:52:59 55° WNW 05:57:58 10° SSW
Radarsat Rocket 4.4 05:47:24 10° NNE 05:54:27 76° WNW 06:02:25 10° SSW
Meteor 1-11 Rocket 3.9 05:48:45 10° S 05:54:36 81° E 06:00:23 10° NNE
Cosmos 1610 Rocket 4.4 05:52:07 10° SSW 05:58:12 64° W 06:04:26 10° N
Cosmos 44 Rocket 3.4 05:53:43 10° SSW 05:58:55 88° WNW 06:04:04 10° NNE
Cosmos 192 4.2 05:55:13 10° SSW 06:00:06 75° WNW 06:05:02 10° NNE
Meteor 1-13 Rocket 4.3 06:01:02 10° NNW 06:06:58 69° W 06:12:51 10° S
PSLV R/B 3.6 06:10:12 30° W 06:11:38 56° SSW 06:14:56 10° ESE
SL-24 DEB 4.3 06:06:57 10° S 06:11:44 87° W 06:16:34 10° N
Okean 1 4.5 06:15:48 23° W 06:16:01 23° W 06:19:12 10° SW
Meteor 1-23 Rocket 4.4 06:12:29 10° N 06:18:04 75° E 06:23:36 10° SSE
Cosmos 1602 4.2 06:15:55 10° SSW 06:19:38 39° WNW 06:23:23 10° N
YAOGAN 1 4.0 06:19:05 10° NNE 06:23:12 41° E 06:27:16 10° S
Cosmos 1633 3.1 06:20:29 10° SSW 06:23:53 36° WNW 06:27:17 10° N
Cosmos 1025 Rocket 3.0 06:21:44 10° N 06:26:08 82° W 06:30:29 10° S
USA 129 1.8 06:27:56 10° S 06:29:53 47° W 06:31:12 19° NNW
USA 215 3.6 06:24:45 10° NE 06:30:50 43° NNW 06:36:54 10° W
Cosmos 2056 Rocket 4.1 06:26:48 12° NW 06:31:01 34° W 06:35:34 10° SSW
Cosmos 1346 Rocket 4.2 06:30:25 17° WNW 06:31:10 17° W 06:33:47 10° SW
CSL-04 Rocket 3.7 06:25:50 10° N 06:31:17 59° WNW 06:36:41 10° SSW
Nadezhda 3 Rocket 4.2 06:25:11 10° NNW 06:31:18 51° W 06:37:24 10° SSW
Meteor 2-4 Rocket 3.7 06:26:39 10° NNW 06:32:08 71° W 06:37:45 10° S
CSL-04 Debris 4.2 06:28:24 10° N 06:33:49 66° WNW 06:39:13 10° SSW
Okean 1 Rocket 3.8 06:30:53 10° SW 06:34:49 31° WNW 06:38:44 10° NNW
SPOT 3 Rocket 4.3 06:29:48 10° NNE 06:34:54 58° ESE 06:39:57 10° S
Cosmos 1295 Rocket 4.5 06:29:34 10° SSW 06:35:53 77° W 06:42:09 10° N
Okean 2 3.6 06:32:22 10° N 06:36:34 79° E 06:40:43 10° S
Cosmos 1544 Rocket 3.9 06:34:43 10° S 06:39:02 72° E 06:43:25 10° NNE
Meteor 1-28 Rocket 4.0 06:36:10 10° SSW 06:39:34 31° W 06:43:00 10° NNW
COSMO-SKYMED 1 3.9 06:37:00 10° SW 06:40:11 20° W 06:43:23 10° NW
CZ-3 R/B 3.2 06:36:24 10° SW 06:41:42 18° S 06:44:30 10° SE
Meteor 1-5 Rocket 4.1 06:36:48 10° S 06:42:11 84° W 06:47:31 10° N
Cosmos 2369 Rocket 2.3 06:39:09 10° NNW 06:44:46 59° WSW 06:50:20 10° S
Ariane Rocket 3.6 06:41:09 10° N 06:45:37 33° WNW 06:50:05 10° SW
IRS-1A Rocket 4.3 06:40:49 10° N 06:46:28 66° WNW 06:52:12 10° SSW
Cosmos 1048 Rocket 4.4 06:42:46 10° S 06:47:50 68° ESE 06:52:59 10° NNE
Okean 1-7 Rocket 4.5 06:45:52 10° NNW 06:49:35 28° W 06:53:18 10° SSW
Cosmos 2341 Rocket 4.3 06:46:11 10° SSW 06:52:08 43° WNW 06:58:05 10° N
Cosmos 1727 Rocket 4.4 06:46:20 10° N 06:52:30 69° E 06:58:39 10° SSE
CZ-4 R/B 1.4 06:49:09 10° N 06:53:02 57° WNW 06:56:51 10° SSW
IDEFIX/ARIANE 42P 2.6 06:50:52 10° NNE 06:56:04 85° WNW 07:01:17 10° SSW
Cosmos 1340 2.6 06:52:40 10° NNW 06:56:26 67° W 07:00:11 10° S
CENTAUR R/B 4.3 06:52:56 10° NW 06:56:32 15° NNW 07:00:21 10° NNE
SJ-12 4.0 06:55:18 10° N 06:59:23 57° WNW 07:03:27 10° SSW
CORIOLIS 4.3 06:54:15 10° NNE 06:59:38 85° ESE 07:04:58 10° SSW
Cosmos 1536 4.0 06:58:16 10° SW 07:01:26 22° WNW 07:04:38 10° NNW
Cosmos 1892 Rocket 3.7 06:58:22 10° NNW 07:02:45 57° W 07:07:07 10° S
Cosmos 44 3.8 06:58:18 10° SW 07:03:25 45° NW 07:08:24 10° NNE
SMAP 3.1 06:59:27 10° N 07:04:05 66° WNW 07:08:41 10° SSW
